TimeHST,TemperatureF,Dew PointF,Humidity,Sea Level PressureIn,VisibilityMPH,Wind Direction,Wind SpeedMPH,Gust SpeedMPH,PrecipitationIn,Events,Conditions,WindDirDegrees,DateUTC
12:55 AM,67.3,56.7,69,30.11,10.0,NE,10.4,-,N/A,,Scattered Clouds,40,2013-02-04 10:55:00
1:55 AM,67.5,57.2,70,30.09,10.0,North,10.4,-,N/A,,Mostly Cloudy,10,2013-02-04 11:55:00
2:55 AM,66.7,54.9,66,30.08,10.0,North,8.1,-,N/A,,Mostly Cloudy,10,2013-02-04 12:55:00
3:55 AM,67.5,55.6,66,30.08,10.0,NNE,8.1,-,N/A,,Overcast,30,2013-02-04 13:55:00
4:55 AM,67.1,55.2,66,30.09,10.0,NE,9.2,-,N/A,,Overcast,40,2013-02-04 14:55:00
5:55 AM,66.6,54.5,65,30.10,10.0,North,5.8,-,N/A,,Mostly Cloudy,10,2013-02-04 15:55:00
6:55 AM,67.1,55.6,66,30.12,10.0,North,5.8,-,N/A,,Overcast,360,2013-02-04 16:55:00
7:55 AM,67.8,56.3,67,30.12,10.0,Variable,5.8,-,N/A,,Overcast,0,2013-02-04 17:55:00
8:55 AM,68.5,55.8,64,30.13,10.0,North,10.4,-,N/A,,Overcast,10,2013-02-04 18:55:00
9:55 AM,70.0,56.8,63,30.13,10.0,NE,8.1,-,N/A,,Overcast,40,2013-02-04 19:55:00
10:55 AM,70.7,58.3,65,30.13,10.0,North,10.4,-,N/A,,Overcast,360,2013-02-04 20:55:00
10:56 AM,71.6,59.0,64,30.13,10.0,NNE,11.5,-,N/A,Rain,Light Rain,30,2013-02-04 20:56:00
11:04 AM,69.8,60.8,73,30.13,9.0,NE,12.7,20.7,N/A,Rain,Light Rain,50,2013-02-04 21:04:00
11:08 AM,69.8,59.0,68,30.13,10.0,NE,9.2,20.7,N/A,,Light Drizzle,50,2013-02-04 21:08:00
11:09 AM,69.8,59.0,68,30.13,10.0,NE,10.4,20.7,N/A,,Overcast,50,2013-02-04 21:09:00
11:11 AM,69.8,60.8,73,30.13,10.0,NE,9.2,-,N/A,,Mostly Cloudy,40,2013-02-04 21:11:00
11:13 AM,69.8,60.8,73,30.13,10.0,NE,12.7,18.4,N/A,,Overcast,40,2013-02-04 21:13:00
11:17 AM,69.8,60.8,73,30.13,10.0,NE,11.5,18.4,N/A,,Light Drizzle,40,2013-02-04 21:17:00
11:26 AM,68.0,59.0,73,30.13,10.0,ENE,17.3,23.0,N/A,,Overcast,60,2013-02-04 21:26:00
11:31 AM,68.0,59.0,73,30.13,10.0,NNE,12.7,23.0,N/A,,Light Drizzle,20,2013-02-04 21:31:00
11:44 AM,68.0,60.8,78,30.12,10.0,Variable,6.9,-,N/A,,Mostly Cloudy,0,2013-02-04 21:44:00
11:55 AM,69.1,60.4,74,30.12,10.0,NNE,9.2,-,0.00,,Overcast,20,2013-02-04 21:55:00
12:03 PM,69.8,60.8,73,30.11,10.0,NE,11.5,18.4,N/A,,Mostly Cloudy,40,2013-02-04 22:03:00
12:09 PM,69.8,60.8,73,30.11,10.0,NNE,10.4,18.4,N/A,,Mostly Cloudy,20,2013-02-04 22:09:00
12:19 PM,69.8,60.8,73,30.11,6.0,NE,15.0,-,N/A,Rain,Light Rain,50,2013-02-04 22:19:00
12:23 PM,69.8,60.8,73,30.11,4.0,NE,11.5,-,N/A,Rain,Light Rain,40,2013-02-04 22:23:00
12:33 PM,68.0,62.6,83,30.11,6.0,NE,16.1,20.7,N/A,Rain,Light Rain,40,2013-02-04 22:33:00
12:39 PM,68.0,62.6,83,30.11,7.0,NE,12.7,-,N/A,,Mostly Cloudy,40,2013-02-04 22:39:00
12:55 PM,68.2,61.5,79,30.10,10.0,NNE,4.6,-,0.01,,Mostly Cloudy,30,2013-02-04 22:55:00
12:56 PM,68.0,60.8,78,30.10,10.0,NE,5.8,-,N/A,,Mostly Cloudy,40,2013-02-04 22:56:00
12:57 PM,68.0,60.8,78,30.10,10.0,Variable,5.8,-,N/A,,Mostly Cloudy,0,2013-02-04 22:57:00
12:58 PM,68.0,60.8,78,30.10,10.0,North,4.6,-,N/A,,Mostly Cloudy,350,2013-02-04 22:58:00
1:02 PM,68.0,60.8,78,30.10,10.0,NE,6.9,-,N/A,,Light Drizzle,40,2013-02-04 23:02:00
1:12 PM,68.0,62.6,83,30.09,4.0,NE,9.2,-,N/A,Rain,Light Rain,50,2013-02-04 23:12:00
1:14 PM,68.0,62.6,83,30.09,5.0,NE,8.1,-,N/A,Rain,Light Rain,50,2013-02-04 23:14:00
1:17 PM,68.0,62.6,83,30.09,5.0,NE,6.9,-,N/A,,Light Drizzle,50,2013-02-04 23:17:00
1:18 PM,68.0,62.6,83,30.09,5.0,NE,5.8,-,N/A,,Drizzle,40,2013-02-04 23:18:00
1:19 PM,68.0,62.6,83,30.09,6.0,Variable,4.6,-,N/A,,Light Drizzle,0,2013-02-04 23:19:00
1:52 PM,68.0,62.6,83,30.08,3.0,East,6.9,-,N/A,Rain,Rain,80,2013-02-04 23:52:00
1:55 PM,67.3,63.0,86,30.08,3.0,ENE,8.1,-,0.03,Rain,Light Rain,70,2013-02-04 23:55:00
2:10 PM,68.0,64.4,88,30.07,10.0,NE,8.1,-,N/A,,Mostly Cloudy,40,2013-02-05 00:10:00
2:18 PM,69.8,64.4,83,30.07,10.0,East,9.2,-,N/A,,Mostly Cloudy,80,2013-02-05 00:18:00
2:23 PM,69.8,62.6,78,30.07,7.0,NE,13.8,-,N/A,Rain,Light Rain,50,2013-02-05 00:23:00
2:37 PM,69.8,62.6,78,30.06,10.0,NE,10.4,-,N/A,,Mostly Cloudy,40,2013-02-05 00:37:00
2:52 PM,68.0,62.6,83,30.06,10.0,ENE,13.8,-,N/A,Rain,Light Rain,60,2013-02-05 00:52:00
2:55 PM,68.4,61.9,80,30.06,9.0,ENE,11.5,-,0.01,,Light Drizzle,60,2013-02-05 00:55:00
3:06 PM,68.0,62.6,83,30.06,10.0,NE,9.2,-,N/A,,Mostly Cloudy,50,2013-02-05 01:06:00
3:08 PM,68.0,62.6,83,30.06,10.0,NE,6.9,-,N/A,,Light Drizzle,40,2013-02-05 01:08:00
3:34 PM,68.0,62.6,83,30.05,10.0,NE,6.9,-,N/A,,Mostly Cloudy,50,2013-02-05 01:34:00
3:55 PM,69.6,61.0,74,30.04,10.0,NE,6.9,-,0.00,,Mostly Cloudy,50,2013-02-05 01:55:00
4:10 PM,69.8,60.8,73,30.04,10.0,NE,13.8,-,N/A,,Light Drizzle,40,2013-02-05 02:10:00
4:19 PM,69.8,60.8,73,30.04,10.0,NE,11.5,-,N/A,,Mostly Cloudy,50,2013-02-05 02:19:00
4:55 PM,70.0,59.0,68,30.05,10.0,NE,15.0,-,0.00,,Mostly Cloudy,40,2013-02-05 02:55:00
5:55 PM,68.5,57.2,67,30.06,10.0,ENE,9.2,-,N/A,,Partly Cloudy,60,2013-02-05 03:55:00
6:55 PM,68.0,58.1,71,30.05,10.0,NE,6.9,-,N/A,,Overcast,50,2013-02-05 04:55:00
7:55 PM,68.4,57.6,68,30.07,10.0,Variable,3.5,-,N/A,,Overcast,0,2013-02-05 05:55:00
8:55 PM,68.0,58.3,71,30.08,10.0,NE,9.2,-,N/A,,Mostly Cloudy,40,2013-02-05 06:55:00
9:55 PM,67.3,58.1,72,30.09,10.0,ENE,4.6,-,N/A,,Mostly Cloudy,60,2013-02-05 07:55:00
10:55 PM,67.8,58.3,71,30.09,10.0,NE,8.1,-,N/A,,Overcast,50,2013-02-05 08:55:00
11:55 PM,67.3,58.6,74,30.09,10.0,NNE,6.9,-,N/A,,Mostly Cloudy,30,2013-02-05 09:55:00